^^
Daily Summary for February 22, 2022 Units:  Metric    English   Both
Daily Weekly Monthly Yearly Custom
  High: Low: Average:
Temperature: 8.3 °C -1.1 °C 3.1 °C
Dew Point: 2.8 °C -3.3 °C 0.2 °C
Humidity: 92% 56% 82%
Wind Speed: 32.2km/h 0km/h 6.9km/h
Wind Gust: 32.2km/h - -
Wind- - SSE
Pressure: 1019.2 hPa 1015.8 hPa -
Precipitation: 5.33 mm    
Historical Graphs
 
 
Tabular Data for February 22, 2022
Time Temperature Dew Point Pressure Wind Wind Speed Wind Gust Humidity Rainfall Rate (Hourly) solar
00:04 3.9 °C 2.2 °C 1015.8 hPa NE 20.9 km/h 32.2 km/h 88% 0 mm 0.00 W/m2
00:09 3.9 °C 2.2 °C 1015.8 hPa ENE 25.7 km/h 20.9 km/h 88% 0 mm 0.00 W/m2
00:14 3.9 °C 2.2 °C 1015.8 hPa East 32.2 km/h 25.7 km/h 89% 0 mm 0.00 W/m2
00:19 3.9 °C 2.2 °C 1015.8 hPa ENE 17.7 km/h 32.2 km/h 89% 0 mm 0.00 W/m2
00:24 3.9 °C 2.2 °C 1015.8 hPa NNW 17.7 km/h 16.1 km/h 89% 0 mm 0.00 W/m2
00:29 3.9 °C 2.2 °C 1015.8 hPa ENE 17.7 km/h 16.1 km/h 89% 0 mm 0.00 W/m2
00:34 3.9 °C 2.2 °C 1015.8 hPa ENE 20.9 km/h 20.9 km/h 89% 0 mm 0.00 W/m2
00:39 3.9 °C 2.2 °C 1015.8 hPa SE 14.5 km/h 11.3 km/h 89% 0 mm 0.00 W/m2
00:44 3.9 °C 2.2 °C 1015.8 hPa East 19.3 km/h 14.5 km/h 89% 0 mm 0.00 W/m2
00:49 3.9 °C 2.2 °C 1015.8 hPa NE 20.9 km/h 20.9 km/h 89% 0 mm 0.00 W/m2
00:54 3.9 °C 2.2 °C 1015.8 hPa ESE 20.9 km/h 14.5 km/h 89% 0.76 mm 0.00 W/m2
00:59 3.9 °C 2.2 °C 1015.8 hPa East 29 km/h 27.4 km/h 89% 1.27 mm 0.00 W/m2
01:04 3.3 °C 1.7 °C 1015.8 hPa NE 20.9 km/h 27.4 km/h 88% 2.03 mm 0.00 W/m2
01:09 3.3 °C 1.7 °C 1015.8 hPa East 6.4 km/h 20.9 km/h 88% 2.29 mm 0.00 W/m2
01:14 3.3 °C 1.7 °C 1015.8 hPa ESE 9.7 km/h 4.8 km/h 88% 2.54 mm 0.00 W/m2
01:19 3.3 °C 1.7 °C 1015.8 hPa North 17.7 km/h 9.7 km/h 89% 2.54 mm 0.00 W/m2
01:24 3.3 °C 1.7 °C 1015.8 hPa East 25.7 km/h 16.1 km/h 89% 2.79 mm 0.00 W/m2
01:28 3.3 °C 1.7 °C 1015.8 hPa ENE 11.3 km/h 25.7 km/h 89% 2.79 mm 0.00 W/m2
01:34 3.3 °C 1.7 °C 1015.8 hPa ENE 11.3 km/h 11.3 km/h 90% 3.05 mm 0.00 W/m2
01:39 3.3 °C 1.7 °C 1015.8 hPa ENE 11.3 km/h 11.3 km/h 90% 2.79 mm 0.00 W/m2
01:44 3.3 °C 1.7 °C 1015.8 hPa ENE 17.7 km/h 11.3 km/h 90% 2.79 mm 0.00 W/m2
01:49 3.3 °C 1.7 °C 1015.8 hPa NE 11.3 km/h 16.1 km/h 90% 2.79 mm 0.00 W/m2
01:54 3.3 °C 2.2 °C 1015.8 hPa NE 1.6 km/h 11.3 km/h 91% 2.54 mm 0.00 W/m2
01:59 3.3 °C 2.2 °C 1015.8 hPa NE 3.2 km/h   91% 1.78 mm 0.00 W/m2
02:04 3.3 °C 2.2 °C 1015.8 hPa Calm   3.2 km/h 91% 1.52 mm 0.00 W/m2
02:09 3.3 °C 2.2 °C 1015.8 hPa NE 11.3 km/h 4.8 km/h 91% 1.27 mm 0.00 W/m2
02:14 3.3 °C 2.2 °C 1015.8 hPa NE 9.7 km/h 11.3 km/h 91% 1.02 mm 0.00 W/m2
02:19 3.3 °C 2.2 °C 1015.8 hPa ENE 17.7 km/h 11.3 km/h 91% 0.76 mm 0.00 W/m2
02:24 3.3 °C 2.2 °C 1015.8 hPa Calm   16.1 km/h 91% 0.76 mm 0.00 W/m2
02:29 3.3 °C 2.2 °C 1015.8 hPa ENE 17.7 km/h 6.4 km/h 91% 1.02 mm 0.00 W/m2
02:34 3.3 °C 1.7 °C 1015.8 hPa NE 9.7 km/h 16.1 km/h 90% 0.76 mm 0.00 W/m2
02:39 2.8 °C 1.7 °C 1015.8 hPa NE 11.3 km/h 9.7 km/h 90% 0.76 mm 0.00 W/m2
02:44 2.8 °C 1.1 °C 1015.8 hPa East 9.7 km/h 11.3 km/h 90% 0.76 mm 0.00 W/m2
02:49 2.8 °C 1.1 °C 1015.8 hPa ENE 11.3 km/h 9.7 km/h 90% 0.76 mm 0.00 W/m2
02:54 2.8 °C 1.1 °C 1015.8 hPa East 11.3 km/h 11.3 km/h 91% 0.76 mm 0.00 W/m2
02:59 2.8 °C 1.7 °C 1015.8 hPa Calm     91% 0.76 mm 0.00 W/m2
03:04 2.8 °C 1.7 °C 1015.8 hPa East 6.4 km/h 1.6 km/h 91% 0.76 mm 0.00 W/m2
03:09 2.8 °C 1.1 °C 1015.8 hPa ENE 1.6 km/h 4.8 km/h 91% 0.76 mm 0.00 W/m2
03:14 2.8 °C 1.1 °C 1015.8 hPa ESE 6.4 km/h 1.6 km/h 91% 0.51 mm 0.00 W/m2
03:19 2.8 °C 1.1 °C 1015.8 hPa ENE 6.4 km/h 4.8 km/h 91% 0.51 mm 0.00 W/m2
03:24 2.8 °C 1.1 °C 1015.8 hPa NW 6.4 km/h 4.8 km/h 91% 0.51 mm 0.00 W/m2
03:29 2.8 °C 1.1 °C 1015.8 hPa Calm   4.8 km/h 91% 0.25 mm 0.00 W/m2
03:34 2.8 °C 1.1 °C 1015.8 hPa NNE 3.2 km/h   91% 0.25 mm 0.00 W/m2
03:39 2.8 °C 1.1 °C 1015.8 hPa NE 3.2 km/h 3.2 km/h 91% 0.25 mm 0.00 W/m2
03:44 2.2 °C 1.1 °C 1015.8 hPa Calm   3.2 km/h 91% 0.76 mm 0.00 W/m2
03:49 2.2 °C 1.1 °C 1015.8 hPa NE 3.2 km/h   90% 1.02 mm 0.00 W/m2
03:54 2.2 °C 0.6 °C 1015.8 hPa Calm   3.2 km/h 90% 1.02 mm 0.00 W/m2
03:59 2.2 °C 0.6 °C 1015.8 hPa Calm     90% 1.27 mm 0.00 W/m2
04:04 2.2 °C 0.6 °C 1015.8 hPa Calm     91% 1.27 mm 0.00 W/m2
04:09 2.2 °C 0.6 °C 1015.8 hPa Calm     91% 1.27 mm 0.00 W/m2
04:14 2.2 °C 0.6 °C 1015.8 hPa NE 3.2 km/h   91% 1.27 mm 0.00 W/m2
04:19 2.2 °C 0.6 °C 1015.8 hPa Calm   3.2 km/h 91% 1.27 mm 0.00 W/m2
04:24 2.2 °C 0.6 °C 1015.8 hPa NE 9.7 km/h 9.7 km/h 91% 1.27 mm 0.00 W/m2
04:29 2.2 °C 0.6 °C 1015.8 hPa NE 3.2 km/h   91% 1.27 mm 0.00 W/m2
04:34 2.2 °C 0.6 °C 1015.8 hPa Calm   3.2 km/h 91% 1.02 mm 0.00 W/m2
04:39 2.2 °C 0.6 °C 1015.8 hPa Calm     91% 1.02 mm 0.00 W/m2
04:44 2.2 °C 0.6 °C 1015.8 hPa NE 3.2 km/h   91% 1.02 mm 0.00 W/m2
04:49 2.2 °C 0.6 °C 1015.8 hPa Calm   3.2 km/h 91% 0.51 mm 0.00 W/m2
04:54 2.2 °C 0.6 °C 1015.8 hPa Calm     91% 0.25 mm 0.00 W/m2
04:59 2.2 °C 0.6 °C 1015.8 hPa Calm     91% 0.25 mm 0.00 W/m2
05:04 2.2 °C 0.6 °C 1015.8 hPa Calm     91% 0 mm 0.00 W/m2
05:09 2.2 °C 0.6 °C 1015.8 hPa Calm     91% 0 mm 0.00 W/m2
05:14 2.2 °C 0.6 °C 1015.8 hPa NE 3.2 km/h   91% 0 mm 0.00 W/m2
05:19 2.2 °C 0.6 °C 1015.8 hPa Calm   3.2 km/h 91% 0 mm 0.00 W/m2
05:24 2.2 °C 1.1 °C 1015.8 hPa Calm     92% 0 mm 0.00 W/m2
05:29 2.2 °C 0.6 °C 1015.8 hPa Calm     91% 0 mm 0.00 W/m2
05:34 2.2 °C 0.6 °C 1015.8 hPa Calm     91% 0 mm 0.00 W/m2
05:39 2.2 °C 0.6 °C 1015.8 hPa ENE 3.2 km/h   91% 0 mm 0.00 W/m2
05:44 2.2 °C 1.1 °C 1015.8 hPa Calm   3.2 km/h 92% 0 mm 0.00 W/m2
05:49 2.2 °C 1.1 °C 1015.8 hPa Calm     92% 0 mm 0.00 W/m2
05:54 2.2 °C 1.1 °C 1015.8 hPa Calm     92% 0 mm 0.00 W/m2
05:59 2.2 °C 0.6 °C 1015.8 hPa Calm     91% 0 mm 0.00 W/m2
06:04 2.2 °C 0.6 °C 1015.8 hPa NNW 3.2 km/h   91% 0 mm 0.00 W/m2
06:09 1.7 °C 0.6 °C 1015.8 hPa NW 3.2 km/h 3.2 km/h 91% 0 mm 0.00 W/m2
06:14 1.7 °C 0.6 °C 1015.8 hPa NW 8 km/h 3.2 km/h 91% 0 mm 0.00 W/m2
06:19 1.7 °C 0.6 °C 1015.8 hPa NW 9.7 km/h 9.7 km/h 91% 0 mm 0.00 W/m2
06:24 1.7 °C 0.6 °C 1015.8 hPa West 3.2 km/h   91% 0 mm 0.00 W/m2
06:28 1.7 °C 0.6 °C 1015.8 hPa NW 6.4 km/h 3.2 km/h 91% 0 mm 0.00 W/m2
06:34 1.7 °C 0.6 °C 1015.8 hPa NNE 6.4 km/h 4.8 km/h 91% 0 mm 0.00 W/m2
06:39 1.7 °C 0.6 °C 1015.8 hPa Calm   4.8 km/h 91% 0 mm 0.00 W/m2
06:44 1.7 °C 0.6 °C 1015.8 hPa Calm     92% 0 mm 0.00 W/m2
06:49 1.7 °C 0.6 °C 1015.8 hPa Calm     92% 0 mm 0.00 W/m2
06:54 1.7 °C 0.6 °C 1015.8 hPa Calm     92% 0 mm 0.00 W/m2
06:59 1.7 °C 0.6 °C 1015.8 hPa Calm     91% 0 mm 5.00 W/m2
07:04 1.7 °C 0.6 °C 1015.8 hPa Calm     91% 0 mm 5.00 W/m2
07:09 1.7 °C 0 °C 1015.8 hPa NW 3.2 km/h   91% 0 mm 7.00 W/m2
07:14 1.7 °C 0 °C 1015.8 hPa NNW 6.4 km/h 3.2 km/h 91% 0 mm 9.00 W/m2
07:19 1.7 °C 0 °C 1015.8 hPa NW 3.2 km/h 4.8 km/h 91% 0 mm 11.00 W/m2
07:24 1.7 °C 0 °C 1015.8 hPa Calm     91% 0 mm 14.00 W/m2
07:29 1.7 °C 0.6 °C 1015.8 hPa Calm     92% 0 mm 25.00 W/m2
07:34 1.7 °C 0.6 °C 1015.8 hPa Calm     92% 0 mm 23.00 W/m2
07:39 1.7 °C 0.6 °C 1015.8 hPa Calm     92% 0 mm 39.00 W/m2
07:44 1.7 °C 0 °C 1015.8 hPa Calm     92% 0 mm 49.00 W/m2
07:49 1.7 °C 0 °C 1015.8 hPa North 6.4 km/h 1.6 km/h 92% 0 mm 40.00 W/m2
07:54 1.7 °C 0 °C 1015.8 hPa NNW 6.4 km/h 4.8 km/h 92% 0 mm 39.00 W/m2
07:59 1.7 °C 0.6 °C 1015.8 hPa NW 9.7 km/h 4.8 km/h 92% 0 mm 37.00 W/m2
08:04 1.7 °C 0.6 °C 1015.8 hPa West 3.2 km/h 9.7 km/h 92% 0 mm 62.00 W/m2
08:09 1.7 °C 0.6 °C 1015.8 hPa Calm   3.2 km/h 92% 0 mm 104.00 W/m2
08:14 1.7 °C 0.6 °C 1015.8 hPa NE 3.2 km/h 3.2 km/h 92% 0 mm 77.00 W/m2
08:19 1.7 °C 0.6 °C 1015.8 hPa NNW 3.2 km/h 3.2 km/h 92% 0 mm 70.00 W/m2
08:24 1.7 °C 0.6 °C 1015.8 hPa North 14.5 km/h 4.8 km/h 92% 0 mm 65.00 W/m2
08:29 1.7 °C 0.6 °C 1015.8 hPa NW 14.5 km/h 14.5 km/h 92% 0 mm 100.00 W/m2
08:34 1.7 °C 0.6 °C 1015.8 hPa WNW 14.5 km/h 14.5 km/h 92% 0 mm 318.00 W/m2
08:39 1.7 °C 0.6 °C 1015.8 hPa NW 3.2 km/h 9.7 km/h 92% 0 mm 311.00 W/m2
08:44 2.2 °C 0.6 °C 1015.8 hPa NNW 20.9 km/h 20.9 km/h 92% 0 mm 221.00 W/m2
08:49 2.2 °C 1.1 °C 1015.8 hPa WSW 20.9 km/h 11.3 km/h 92% 0 mm 272.00 W/m2
08:54 2.2 °C 1.1 °C 1015.8 hPa NNE 6.4 km/h 20.9 km/h 92% 0 mm 220.00 W/m2
08:59 2.2 °C 1.1 °C 1015.8 hPa NW 9.7 km/h 4.8 km/h 92% 0 mm 410.00 W/m2
09:04 2.2 °C 1.1 °C 1015.8 hPa NE 9.7 km/h 9.7 km/h 92% 0 mm 434.00 W/m2
09:09 2.8 °C 1.1 °C 1015.8 hPa North 3.2 km/h 9.7 km/h 92% 0 mm 483.00 W/m2
09:14 2.8 °C 1.7 °C 1015.8 hPa NW 17.7 km/h 11.3 km/h 92% 0 mm 550.00 W/m2
09:19 2.8 °C 1.7 °C 1015.8 hPa WNW 16.1 km/h 16.1 km/h 92% 0 mm 548.00 W/m2
09:24 2.8 °C 1.7 °C 1015.8 hPa North 9.7 km/h 11.3 km/h 92% 0 mm 548.00 W/m2
09:29 3.3 °C 1.7 °C 1015.8 hPa East 3.2 km/h 9.7 km/h 92% 0 mm 455.00 W/m2
09:34 3.3 °C 2.2 °C 1015.8 hPa NW 14.5 km/h 8 km/h 92% 0 mm 619.00 W/m2
09:39 3.3 °C 2.2 °C 1015.8 hPa ENE 17.7 km/h 14.5 km/h 92% 0 mm 612.00 W/m2
09:44 3.9 °C 2.2 °C 1015.8 hPa North 14.5 km/h 16.1 km/h 92% 0 mm 629.00 W/m2
09:49 3.9 °C 2.2 °C 1015.8 hPa NW 11.3 km/h 14.5 km/h 92% 0 mm 652.00 W/m2
09:54 3.9 °C 2.8 °C 1015.8 hPa NW 17.7 km/h 11.3 km/h 91% 0 mm 643.00 W/m2
09:59 3.9 °C 2.8 °C 1015.8 hPa North 3.2 km/h 16.1 km/h 90% 0 mm 671.00 W/m2
10:04 4.4 °C 2.2 °C 1015.8 hPa SE 11.3 km/h 6.4 km/h 89% 0 mm 663.00 W/m2
10:09 4.4 °C 2.8 °C 1015.8 hPa East 9.7 km/h 11.3 km/h 88% 0 mm 752.00 W/m2
10:14 4.4 °C 2.2 °C 1015.8 hPa NW 14.5 km/h 9.7 km/h 86% 0 mm 768.00 W/m2
10:19 5 °C 2.2 °C 1015.8 hPa NNW 9.7 km/h 14.5 km/h 84% 0 mm 765.00 W/m2
10:24 5 °C 2.2 °C 1015.8 hPa North 9.7 km/h 9.7 km/h 83% 0 mm 791.00 W/m2
10:29 5 °C 1.7 °C 1015.8 hPa NE 14.5 km/h 9.7 km/h 79% 0.25 mm 193.00 W/m2
10:34 5 °C 1.7 °C 1015.8 hPa East 11.3 km/h 14.5 km/h 79% 0.25 mm 169.00 W/m2
10:39 5 °C 1.1 °C 1015.8 hPa NE 6.4 km/h 11.3 km/h 77% 0.25 mm 192.00 W/m2
10:44 5 °C 1.1 °C 1015.8 hPa ENE 9.7 km/h 4.8 km/h 77% 0.25 mm 264.00 W/m2
10:49 5 °C 1.1 °C 1015.8 hPa ENE 17.7 km/h 16.1 km/h 76% 0.25 mm 209.00 W/m2
10:53 5 °C 1.1 °C 1015.8 hPa East 6.4 km/h 16.1 km/h 76% 0.25 mm 218.00 W/m2
10:59 5 °C 1.1 °C 1015.8 hPa WNW 11.3 km/h 4.8 km/h 77% 0.25 mm 241.00 W/m2
11:04 5 °C 1.1 °C 1015.8 hPa East 20.9 km/h 17.7 km/h 76% 0.25 mm 255.00 W/m2
11:09 5 °C 1.1 °C 1015.8 hPa NE 20.9 km/h 20.9 km/h 76% 0.25 mm 891.00 W/m2
11:14 5.6 °C 1.7 °C 1015.8 hPa NW 9.7 km/h 14.5 km/h 78% 0.25 mm 879.00 W/m2
11:19 5.6 °C 2.2 °C 1015.8 hPa North 9.7 km/h 3.2 km/h 77% 0.25 mm 766.00 W/m2
11:24 6.1 °C 1.7 °C 1015.8 hPa NNW 9.7 km/h 9.7 km/h 74% 0.25 mm 265.00 W/m2
11:29 6.1 °C 1.7 °C 1015.8 hPa East 14.5 km/h 9.7 km/h 73% 0.25 mm 858.00 W/m2
11:34 6.1 °C 1.1 °C 1015.8 hPa ENE 14.5 km/h 14.5 km/h 72% 0 mm 269.00 W/m2
11:39 6.1 °C 1.1 °C 1015.8 hPa NNE 3.2 km/h 14.5 km/h 71% 0 mm 269.00 W/m2
11:44 5.6 °C 1.1 °C 1015.8 hPa NE 20.9 km/h 6.4 km/h 71% 0 mm 183.00 W/m2
11:49 5.6 °C 0.6 °C 1015.8 hPa NE 14.5 km/h 20.9 km/h 70% 0 mm 192.00 W/m2
11:54 5.6 °C 0.6 °C 1015.8 hPa East 17.7 km/h 16.1 km/h 70% 0 mm 179.00 W/m2
11:59 5.6 °C 0.6 °C 1015.8 hPa East 17.7 km/h 16.1 km/h 70% 0 mm 162.00 W/m2
12:04 5.6 °C 0.6 °C 1015.8 hPa ENE 17.7 km/h 16.1 km/h 71% 0 mm 578.00 W/m2
12:09 5.6 °C 1.1 °C 1015.8 hPa ESE 20.9 km/h 16.1 km/h 72% 0 mm 784.00 W/m2
12:14 6.1 °C 0.6 °C 1015.8 hPa ENE 20.9 km/h 20.9 km/h 68% 0 mm 846.00 W/m2
12:19 6.7 °C 1.7 °C 1015.8 hPa East 20.9 km/h 20.9 km/h 70% 0 mm 837.00 W/m2
12:24 6.7 °C 1.7 °C 1015.8 hPa NE 25.7 km/h 20.9 km/h 71% 0 mm 819.00 W/m2
12:29 7.2 °C 1.1 °C 1015.8 hPa ENE 14.5 km/h 25.7 km/h 65% 0 mm 851.00 W/m2
12:34 7.8 °C 1.7 °C 1015.8 hPa NE 17.7 km/h 16.1 km/h 66% 0 mm 881.00 W/m2
12:39 7.8 °C 1.1 °C 1015.8 hPa East 29 km/h 25.7 km/h 64% 0 mm 879.00 W/m2
12:44 7.8 °C 1.1 °C 1015.8 hPa NNW 29 km/h 27.4 km/h 62% 0 mm 870.00 W/m2
12:49 7.8 °C 0.6 °C 1015.8 hPa ENE 17.7 km/h 27.4 km/h 60% 0 mm 849.00 W/m2
12:54 8.3 °C 1.1 °C 1015.8 hPa NNE 11.3 km/h 16.1 km/h 62% 0 mm 858.00 W/m2
12:59 8.3 °C 0.6 °C 1015.8 hPa ENE 14.5 km/h 14.5 km/h 60% 0 mm 225.00 W/m2
13:04 7.8 °C 0 °C 1015.8 hPa East 29 km/h 17.7 km/h 58% 0 mm 251.00 W/m2
13:09 7.8 °C -0.6 °C 1015.8 hPa ESE 29 km/h 27.4 km/h 56% 0 mm 336.00 W/m2
13:14 7.8 °C -0.6 °C 1015.8 hPa ENE 16.1 km/h 27.4 km/h 57% 0 mm 336.00 W/m2
13:19 7.2 °C -0.6 °C 1015.8 hPa NE 14.5 km/h 14.5 km/h 57% 0 mm 174.00 W/m2
13:24 7.2 °C 0 °C 1015.8 hPa ENE 9.7 km/h 14.5 km/h 62% 0 mm 132.00 W/m2
13:29 6.7 °C 0 °C 1015.8 hPa NE 14.5 km/h 9.7 km/h 63% 0 mm 90.00 W/m2
13:34 6.7 °C 0 °C 1015.8 hPa North 11.3 km/h 14.5 km/h 64% 0 mm 65.00 W/m2
13:39 6.1 °C 0 °C 1015.8 hPa NW 14.5 km/h 11.3 km/h 67% 0 mm 69.00 W/m2
13:44 5.6 °C -0.6 °C 1015.8 hPa ENE 20.9 km/h 14.5 km/h 68% 0 mm 105.00 W/m2
13:49 5 °C -0.6 °C 1015.8 hPa NW 14.5 km/h 20.9 km/h 71% 0 mm 167.00 W/m2
13:54 4.4 °C -0.6 °C 1015.8 hPa NW 6.4 km/h 14.5 km/h 72% 0 mm 209.00 W/m2
13:59 4.4 °C 0 °C 1015.8 hPa WNW 17.7 km/h 6.4 km/h 74% 0 mm 241.00 W/m2
14:04 3.9 °C 0 °C 1015.8 hPa WNW 3.2 km/h 16.1 km/h 74% 0 mm 308.00 W/m2
14:09 3.9 °C 0 °C 1015.8 hPa NNW 8 km/h 3.2 km/h 75% 0 mm 211.00 W/m2
14:14 3.9 °C 0 °C 1015.8 hPa ESE 9.7 km/h 9.7 km/h 76% 0 mm 176.00 W/m2
14:19 3.9 °C 0 °C 1015.8 hPa West 17.7 km/h 8 km/h 76% 0 mm 123.00 W/m2
14:24 3.9 °C 0 °C 1015.8 hPa West 17.7 km/h 16.1 km/h 76% 0 mm 90.00 W/m2
14:29 3.9 °C 0 °C 1015.8 hPa West 11.3 km/h 16.1 km/h 76% 0 mm 97.00 W/m2
14:34 3.3 °C -0.6 °C 1015.8 hPa West 14.5 km/h 11.3 km/h 77% 0 mm 151.00 W/m2
14:39 3.3 °C -0.6 °C 1015.8 hPa SSE 3.2 km/h 14.5 km/h 77% 0 mm 269.00 W/m2
14:44 3.3 °C 0 °C 1015.8 hPa West 6.4 km/h 3.2 km/h 78% 0 mm 185.00 W/m2
14:49 3.3 °C 0 °C 1015.8 hPa WNW 3.2 km/h 4.8 km/h 78% 0 mm 167.00 W/m2
14:54 3.3 °C 0 °C 1015.8 hPa West 17.7 km/h 3.2 km/h 78% 0 mm 162.00 W/m2
14:59 3.3 °C 0 °C 1015.8 hPa NW 11.3 km/h 16.1 km/h 77% 0 mm 204.00 W/m2
15:04 3.3 °C 0 °C 1015.8 hPa NW 3.2 km/h 11.3 km/h 77% 0 mm 216.00 W/m2
15:09 3.9 °C 0 °C 1015.8 hPa NW 3.2 km/h 3.2 km/h 76% 0 mm 346.00 W/m2
15:14 3.9 °C 0 °C 1015.8 hPa Calm     75% 0 mm 336.00 W/m2
15:19 3.9 °C 0 °C 1015.8 hPa NW 3.2 km/h   75% 0 mm 171.00 W/m2
15:24 4.4 °C 0 °C 1015.8 hPa Calm   3.2 km/h 74% 0 mm 120.00 W/m2
15:29 4.4 °C 0 °C 1015.8 hPa Calm     74% 0 mm 95.00 W/m2
15:34 4.4 °C 0 °C 1015.8 hPa West 3.2 km/h   72% 0 mm 84.00 W/m2
15:39 4.4 °C 0 °C 1015.8 hPa West 3.2 km/h 3.2 km/h 72% 0 mm 77.00 W/m2
15:44 4.4 °C 0 °C 1015.8 hPa Calm     72% 0 mm 70.00 W/m2
15:49 4.4 °C 0 °C 1015.8 hPa West 3.2 km/h   72% 0 mm 81.00 W/m2
15:54 4.4 °C 0 °C 1015.8 hPa Calm   3.2 km/h 72% 0 mm 98.00 W/m2
15:59 4.4 °C -0.6 °C 1015.8 hPa Calm     71% 0 mm 100.00 W/m2
16:04 4.4 °C -0.6 °C 1015.8 hPa West 3.2 km/h   71% 0 mm 97.00 W/m2
16:09 4.4 °C -0.6 °C 1015.8 hPa Calm   3.2 km/h 71% 0 mm 77.00 W/m2
16:14 4.4 °C -0.6 °C 1015.8 hPa Calm     71% 0 mm 77.00 W/m2
16:19 4.4 °C -0.6 °C 1015.8 hPa Calm     70% 0 mm 104.00 W/m2
16:24 4.4 °C -0.6 °C 1015.8 hPa Calm     69% 0 mm 100.00 W/m2
16:29 4.4 °C -0.6 °C 1015.8 hPa WNW 3.2 km/h   69% 0 mm 77.00 W/m2
16:34 4.4 °C -0.6 °C 1015.8 hPa Calm   3.2 km/h 70% 0 mm 88.00 W/m2
16:39 4.4 °C -0.6 °C 1015.8 hPa Calm     70% 0 mm 83.00 W/m2
16:44 4.4 °C -0.6 °C 1015.8 hPa WNW 6.4 km/h 1.6 km/h 70% 0 mm 42.00 W/m2
16:49 4.4 °C -0.6 °C 1015.8 hPa West 9.7 km/h 4.8 km/h 69% 0 mm 37.00 W/m2
16:54 4.4 °C -0.6 °C 1015.8 hPa West 9.7 km/h 9.7 km/h 68% 0 mm 32.00 W/m2
16:59 4.4 °C -0.6 °C 1015.8 hPa NW 3.2 km/h 9.7 km/h 68% 0 mm 62.00 W/m2
17:04 4.4 °C -0.6 °C 1015.8 hPa WNW 3.2 km/h   69% 0 mm 33.00 W/m2
17:09 4.4 °C -0.6 °C 1015.8 hPa Calm   3.2 km/h 69% 0 mm 28.00 W/m2
17:14 4.4 °C -0.6 °C 1015.8 hPa Calm     71% 0 mm 23.00 W/m2
17:19 4.4 °C -0.6 °C 1015.8 hPa Calm     71% 0 mm 21.00 W/m2
17:24 4.4 °C -0.6 °C 1015.8 hPa Calm     71% 0 mm 18.00 W/m2
17:29 4.4 °C 0 °C 1015.8 hPa Calm     73% 0 mm 18.00 W/m2
17:34 4.4 °C 0 °C 1015.8 hPa Calm     73% 0 mm 16.00 W/m2
17:39 3.9 °C -0.6 °C 1015.8 hPa Calm     72% 0 mm 14.00 W/m2
17:44 3.9 °C -0.6 °C 1015.8 hPa Calm     72% 0 mm 12.00 W/m2
17:49 3.9 °C -0.6 °C 1015.8 hPa Calm     73% 0 mm 9.00 W/m2
17:54 3.3 °C -0.6 °C 1015.8 hPa Calm     73% 0 mm 0.00 W/m2
17:59 3.3 °C -1.1 °C 1015.8 hPa Calm     73% 0 mm 0.00 W/m2
18:04 3.3 °C -1.1 °C 1015.8 hPa Calm     74% 0 mm 0.00 W/m2
18:09 2.8 °C -1.1 °C 1015.8 hPa Calm     74% 0 mm 0.00 W/m2
18:14 2.8 °C -1.1 °C 1015.8 hPa Calm     74% 0 mm 0.00 W/m2
18:19 2.8 °C -1.7 °C 1015.8 hPa Calm     75% 0 mm 0.00 W/m2
18:24 2.2 °C -1.7 °C 1015.8 hPa Calm     75% 0 mm 0.00 W/m2
18:29 2.2 °C -1.7 °C 1015.8 hPa Calm     76% 0 mm 0.00 W/m2
18:34 2.2 °C -1.7 °C 1015.8 hPa Calm     76% 0 mm 0.00 W/m2
18:39 1.7 °C -1.7 °C 1015.8 hPa Calm     77% 0 mm 0.00 W/m2
18:44 1.7 °C -1.7 °C 1015.8 hPa Calm     77% 0 mm 0.00 W/m2
18:49 1.7 °C -2.2 °C 1015.8 hPa Calm     78% 0 mm 0.00 W/m2
18:54 1.1 °C -2.2 °C 1015.8 hPa Calm     78% 0 mm 0.00 W/m2
18:59 1.1 °C -2.2 °C 1015.8 hPa Calm     79% 0 mm 0.00 W/m2
19:04 1.1 °C -2.2 °C 1015.8 hPa Calm     79% 0 mm 0.00 W/m2
19:09 1.1 °C -2.2 °C 1015.8 hPa Calm     80% 0 mm 0.00 W/m2
19:14 0.6 °C -2.2 °C 1015.8 hPa Calm     80% 0 mm 0.00 W/m2
19:19 0.6 °C -2.2 °C 1015.8 hPa Calm     80% 0 mm 0.00 W/m2
19:24 0.6 °C -2.2 °C 1015.8 hPa Calm     81% 0 mm 0.00 W/m2
19:29 0.6 °C -2.2 °C 1015.8 hPa Calm     81% 0 mm 0.00 W/m2
19:34 0.6 °C -2.2 °C 1015.8 hPa Calm     81% 0 mm 0.00 W/m2
19:39 0.6 °C -2.2 °C 1015.8 hPa Calm     82% 0 mm 0.00 W/m2
19:44 0.6 °C -2.2 °C 1015.8 hPa Calm     82% 0 mm 0.00 W/m2
19:49 0 °C -2.2 °C 1015.8 hPa Calm     82% 0 mm 0.00 W/m2
19:54 0 °C -2.8 °C 1015.8 hPa Calm     82% 0 mm 0.00 W/m2
19:59 0 °C -2.2 °C 1015.8 hPa Calm     83% 0 mm 0.00 W/m2
20:04 0 °C -2.8 °C 1015.8 hPa Calm     83% 0 mm 0.00 W/m2
20:09 0 °C -2.8 °C 1015.8 hPa Calm     83% 0 mm 0.00 W/m2
20:14 0 °C -2.8 °C 1015.8 hPa Calm     83% 0 mm 0.00 W/m2
20:19 0 °C -2.8 °C 1015.8 hPa Calm     83% 0 mm 0.00 W/m2
20:23 0 °C -2.8 °C 1015.8 hPa Calm     83% 0 mm 0.00 W/m2
20:29 0 °C -2.8 °C 1015.8 hPa Calm     83% 0 mm 0.00 W/m2
20:34 -0.6 °C -2.8 °C 1015.8 hPa Calm     83% 0 mm 0.00 W/m2
20:39 -0.6 °C -2.8 °C 1015.8 hPa Calm     83% 0 mm 0.00 W/m2
20:44 -0.6 °C -2.8 °C 1015.8 hPa Calm     83% 0 mm 0.00 W/m2
20:49 -0.6 °C -3.3 °C 1015.8 hPa Calm     83% 0 mm 0.00 W/m2
20:54 -0.6 °C -3.3 °C 1015.8 hPa Calm     84% 0 mm 0.00 W/m2
20:59 -0.6 °C -3.3 °C 1015.8 hPa Calm     84% 0 mm 0.00 W/m2
21:04 -0.6 °C -3.3 °C 1015.8 hPa Calm     84% 0 mm 0.00 W/m2
21:09 -0.6 °C -3.3 °C 1015.8 hPa Calm     84% 0 mm 0.00 W/m2
21:14 -1.1 °C -3.3 °C 1015.8 hPa Calm     84% 0 mm 0.00 W/m2
21:19 -1.1 °C -3.3 °C 1015.8 hPa Calm     85% 0 mm 0.00 W/m2
21:24 -1.1 °C -3.3 °C 1015.8 hPa Calm     85% 0 mm 0.00 W/m2
21:29 -1.1 °C -3.3 °C 1015.8 hPa Calm     85% 0 mm 0.00 W/m2
21:34 -1.1 °C -3.3 °C 1015.8 hPa Calm     85% 0 mm 0.00 W/m2
21:39 -1.1 °C -3.3 °C 1015.8 hPa Calm     85% 0 mm 0.00 W/m2
21:44 -1.1 °C -3.3 °C 1019.2 hPa Calm     85% 0 mm 0.00 W/m2
21:49 -1.1 °C -3.3 °C 1019.2 hPa Calm     85% 0 mm 0.00 W/m2
21:54 -1.1 °C -3.3 °C 1019.2 hPa Calm     86% 0 mm 0.00 W/m2
21:59 -1.1 °C -3.3 °C 1019.2 hPa Calm     86% 0 mm 0.00 W/m2
22:00 -1.1 °C -3.3 °C 1019.2 hPa Calm     86% 0 mm 0.00 W/m2
El Dorado Weather
Compliments of Weather Underground - 2 mb